W1EME-3 Weather Reports


time (UTC)temp
F
wind
direction
speed
knots
gust
knots
rain 1hr
in
rain 24hr
in
rain mn
in
humidity
%
barometer
mb
20260510223109 64 332 0.9 6.1 0.00 0.02 0.02
20260510220108 64 272 0.0 8.7 0.00 0.05 0.02
20260510213108 64 331 0.9 7.8 0.00 0.08 0.02
20260510210109 64 292 4.3 10.4 0.00 0.10 0.02
20260510203108 64 258 0.0 1.7 0.00 0.12 0.02
20260510200109 66 258 0.0 9.6 0.01 0.15 0.02
20260510193109 66 262 2.6 7.8 0.01 0.18 0.02
20260510190109 65 266 0.0 9.6 0.00 0.17 0.01
20260510173109 69 234 6.1 8.7 0.00 0.18 0.01
20260510170109 69 142 4.3 7.8 0.00 0.18 0.01
20260510163108 67 253 5.2 13.0 0.00 0.20 0.01
20260510160109 67 259 1.7 9.6 0.00 0.20 0.01
20260510150108 62 257 1.7 7.0 0.00 0.21 0.01
20260510143108 58 251 2.6 7.0 0.00 0.21 0.01
20260510140108 59 130 0.9 5.2 0.00 0.22 0.01
20260510133108 56 145 3.5 4.3 0.00 0.22 0.01
20260510130108 54 248 0.9 4.3 0.00 0.22 0.01
20260510120108 54 263 0.9 3.5 0.00 0.23 0.01
20260510113108 53 264 0.9 3.5 0.00 0.24 0.01
20260510110108 53 265 0.0 3.5 0.00 0.25 0.01
20260510103108 53 265 0.9 5.2 0.00 0.26 0.01
20260510100108 52 157 0.9 4.3 0.00 0.28 0.01
20260510093108 52 261 0.9 4.3 0.00 0.30 0.01
20260510090108 52 261 0.9 2.6 0.00 0.32 0.01
20260510080108 52 262 0.9 4.3 0.00 0.33 0.01
20260510073108 52 236 2.6 5.2 0.00 0.33 0.01
20260510070108 52 190 0.9 2.6 0.00 0.33 0.01
20260510060108 52 189 0.0 1.7 0.00 0.33 0.01
20260510043108 53 187 0.0 2.6 0.00 0.32 0.00
20260510040108 53 189 0.0 1.7 0.00 0.32 0.00
20260510033108 52 176 0.0 0.9 0.00 0.32 0.32
20260510023107 53 177 0.0 1.7 0.00 0.32 0.32
20260510020107 53 177 0.0 1.7 0.00 0.32 0.32
20260510013108 52 180 0.0 1.7 0.00 0.32 0.32
20260510003108 52 179 0.9 2.6 0.00 0.32 0.32
20260510000108 52 180 0.0 4.3 0.00 0.32 0.32
20260509233107 52 132 1.7 4.3 0.00 0.32 0.32